STARLINK-3976, 52673

Orbit data source: Space-Track

STARLINK-3976, 52673 is a payload satellite owned by SpaceX/Seattle (US) in LEO that was launched on Wed, 18 May 2022 UTC via an FALCON 9 launch vehicle from the Air Force Eastern Test Range (AFETR). Payload-class satellites include a variety of spacecraft equipped with specific instruments for various scientific and technological missions. These include communications satellites like Starlink; space stations such as the ISS; scientific satellites like the Hubble; Earth observation satellites from companies like Planet Labs, Umbra, and HawkEye 360; GPS; miniature CubeSats for education and research; and military/defense satellites.

Loading next visibility...
Identifier
52673, 2022-053T
Orbit
LEO
Country
Flag of USUS
Related business
Manufacturer
SpaceX/Seattle
Mission
Operational Commercial Communications
Bus & Motor
STARLINK, Unknown motor
Mass
297 kg wet, ~275 kg dry
Launch date (UTC)
2022-05-18 (4 years ago)
Launch vehicle
FALCON 9
Launch site
Air Force Eastern Test Range (AFETR)
Object type
Payload
Rocket body
Debris
Shape & HBR
Box + 1 Pan, 10.1 m
Radar Cross Section
13.562 m², Large (>1 m²)

Expand to show TLE details & history
Last TLE update: 2 days ago

TLE from 2 days ago
0 STARLINK-3976
1 52673U 22053T   26171.37435315  .00002832  00000-0  19588-3 0  9992
2 52673  53.1602  53.0377 0001301  92.5989 267.5151 15.08854975226542
Epoch: 2026-06-20T08:59Z
TLE epoch observation values (Epoch: 2026-06-20T08:59:04.112Z)
Latitude
-0.00004°
Longitude
9.68065°
Altitude
540.628 km
Speed
7.593 km/s
True Right ascension
03h 32m 09s
True Declination
0° 00' 00"
Sunlit
Object was in daylight at epoch
Visualization orbit readout
Latitude
Unknown
Longitude
Unknown
Altitude
Unknown
Speed
Unknown
Apparent Right ascension
Unknown
Apparent Declination
Unknown
Sunlit
N/A
Visualization observer readout
Local Sidereal Time
23:08:45
Azimuth
Unknown
Elevation
Unknown
Doppler factor
Unknown
Orbital elements
Apogee altitude
540.852 km
Perigee altitude
539.052 km
Semi-major axis
6,918.089 km
Eccentricity
0.00013
Inclination
53.1602°
RAAN
53.0377°
Arg. of periapsis
92.5989°
True anomaly
267.50021°
Mean anomaly
267.5151°
Eccentric anomaly
267.50765°
Mean motion
3.77193 °/min
Orbital period
95.44 mins
BSTAR
0.00019588
Loading maneuver chart data...
Computing Atmospheric mass density...

Documentation

Showing up to 5 results
|